Home   Weather   Rouen   Past weeks

Flag for France Past Weather in Rouen, Upper Normandy, France — Yesterday and Last 2 Weeks

48 °F

Low clouds.

Feels Like: 45 °F
Forecast: 47 / 61 °F
Wind: 8 mph from East

Location: Rouen Airport

Current Time: Oct 24, 2016 at 1:51:44 AM

Latest Report: Oct 24, 2016 at 1:30 AM

Visibility: N/A

Pressure: 29.77 "Hg

Humidity: 100%

Dew Point: 48 °F

Location of RouenLocation

Past Weather in Rouen — Graph


Rouen Temperature Yesterday

Maximum temperature yesterday: 50 °F (at 2:30 PM)
Minimum temperature yesterday: 39 °F (at 7:00 AM)
Average temperature yesterday: 44 °F

High & Low Weather Summary for the Past Weeks

High64 °F (Oct 17, 3:00 PM)100% (Oct 9, 9:30 AM)30.30 "Hg (Oct 9, 9:30 AM)
Low37 °F (Oct 10, 7:00 AM)45% (Oct 9, 3:00 PM)29.62 "Hg (Oct 14, 2:30 PM)
Average49 °F84%30.02 "Hg
* Reported Oct 9 12:00 AM — Oct 24 12:30 AM, Rouen, Weather by CustomWeather, © 2016

Note: Actual official high and low records may vary slightly from our data, if they occured in-between our weather recording intervals... More about our weather records


Rouen Weather History for the Previous 24 Hours

Scroll right to see more
Time TempWeatherWind HumidityBarometerVisibility
12:30 AM
Mon, Oct 24
48 °FDrizzle. Fog.8 mph100%29.77 "Hg3 mi
12:00 AM48 °FDrizzle. Fog.7 mph100%29.77 "Hg2 mi
11:30 PM
Sun, Oct 23
48 °FDrizzle. Fog.9 mph100%29.74 "Hg2 mi
11:00 PM48 °FLight rain. Fog.10 mph100%29.74 "Hg2 mi
10:30 PM48 °FRain. Fog.13 mph100%29.74 "Hg2 mi
10:00 PM48 °FRain. Fog.17 mph94%29.74 "Hg2 mi
9:30 PM48 °FLight rain. Fog.16 mph94%29.74 "Hg2 mi
9:00 PM48 °FRain. Fog.14 mph94%29.74 "Hg3 mi
8:30 PM46 °FRain. Fog.13 mph100%29.74 "Hg3 mi
8:00 PM46 °FRain. Fog.16 mph93%29.74 "Hg3 mi
7:30 PM46 °FRain. Fog.15 mph93%29.74 "Hg3 mi
7:00 PM46 °FRain. Fog.17 mph93%29.71 "Hg3 mi
6:30 PM46 °FRain. Fog.15 mph93%29.71 "Hg3 mi
6:00 PM46 °FRain. Cloudy.13 mph93%29.71 "Hg4 mi
5:30 PM46 °FRain. Cloudy.10 mph93%29.74 "Hg5 mi
5:00 PM48 °FLight rain. Cloudy.12 mph82%29.74 "HgN/A
4:30 PM48 °FCool.10 mph76%29.74 "HgN/A
4:00 PM48 °FSunny.13 mph76%29.74 "Hg10 mi
3:30 PM48 °FSunny.12 mph76%29.74 "Hg10 mi
3:00 PM48 °FSunny.15 mph76%29.74 "Hg10 mi
2:30 PM50 °FSunny.15 mph76%29.77 "Hg10 mi
2:00 PM48 °FSunny.14 mph82%29.77 "Hg10 mi
1:30 PM48 °FPassing clouds.13 mph76%29.77 "HgN/A
1:00 PM48 °FPartly sunny.14 mph82%29.77 "HgN/A
12:30 PM45 °FScattered clouds.14 mph87%29.80 "HgN/A
12:00 PM43 °FPartly sunny.13 mph93%29.80 "HgN/A
11:30 AM43 °FLow clouds.13 mph93%29.80 "HgN/A
11:00 AM43 °FLow clouds.12 mph93%29.80 "Hg4 mi
10:30 AM41 °FFog.13 mph100%29.80 "Hg3 mi
10:00 AM41 °FFog.10 mph93%29.83 "Hg1 mi
9:30 AM39 °FFog.13 mph100%29.83 "Hg1 mi
9:00 AM39 °FDense fog.12 mph100%29.80 "Hg1 mi
8:30 AM39 °FDense fog.10 mph100%29.80 "Hg1 mi
8:00 AM39 °FDense fog.10 mph100%29.80 "Hg0 mi
7:30 AM39 °FDense fog.8 mph93%29.83 "Hg1 mi
7:00 AM39 °FClear.7 mph93%29.83 "Hg3 mi
6:30 AM41 °FClear.7 mph93%29.83 "Hg3 mi
6:00 AM41 °FClear.9 mph100%29.83 "Hg6 mi
5:30 AM41 °FClear.7 mph100%29.83 "Hg3 mi
5:00 AM41 °FClear.5 mph100%29.83 "Hg2 mi
4:30 AM41 °FClear.7 mph100%29.83 "Hg4 mi
4:00 AM43 °FClear.6 mph93%29.86 "Hg3 mi
3:30 AM43 °FClear.7 mph93%29.86 "Hg3 mi
3:00 AM41 °FClear.6 mph100%29.86 "Hg4 mi
2:30 AM43 °FClear.6 mph93%29.86 "Hg6 mi
2:00 AM43 °FClear.6 mph93%29.89 "Hg6 mi
1:30 AM43 °FClear.7 mph93%29.89 "HgN/A
1:00 AM43 °FClear.7 mph93%29.89 "HgN/A
Weather by CustomWeather, © 2016

See weather overviewHow to use our weather pages